| time (UTC) | temp C | wind direction | speed KPH | gust KPH | rain 1hr cm | rain 24hr cm | rain mn cm | humidity % | barometer mb |
| 20260903024404 | 19 | 175 | 0.0 | 1.6 | 0.00 | 0.00 | 0.00 | 52 | 1006.5 |
| 20260903023405 | 20 | 175 | 0.0 | 3.2 | 0.00 | 0.00 | 0.00 | 49 | 1006.4 |
| 20260903022904 | 20 | 175 | 0.0 | 3.2 | 0.00 | 0.00 | 0.00 | 48 | 1006.5 |
| 20260903020405 | 22 | 175 | 0.0 | 0.0 | 0.00 | 0.00 | 0.00 | 38 | 1006.3 |
| 20260903015905 | 23 | 175 | 0.0 | 0.0 | 0.00 | 0.00 | 0.00 | 37 | 1006.2 |
| 20260903014405 | 24 | 175 | 0.0 | 0.0 | 0.00 | 0.00 | 0.00 | 33 | 1006.2 |
| 20260903013404 | 25 | 175 | 0.0 | 1.6 | 0.00 | 0.00 | 0.00 | 31 | 1006.2 |
| 20260903011404 | 26 | 192 | 1.6 | 9.7 | 0.00 | 0.00 | 0.00 | 27 | 1006.2 |
| 20260903010405 | 26 | 199 | 4.8 | 14.5 | 0.00 | 0.00 | 0.00 | 27 | 1006.1 |
| 20260903005904 | 26 | 214 | 4.8 | 14.5 | 0.00 | 0.00 | 0.00 | 27 | 1006.1 |
| 20260903002904 | 27 | 216 | 3.2 | 9.7 | 0.00 | 0.00 | 0.00 | 28 | 1006.1 |
| 20260903002405 | 26 | 218 | 3.2 | 9.7 | 0.00 | 0.00 | 0.00 | 28 | 1006.1 |
| 20260903001405 | 27 | 204 | 4.8 | 12.9 | 0.00 | 0.00 | 0.00 | 27 | 1006.2 |
| 20260903000905 | 27 | 200 | 4.8 | 12.9 | 0.00 | 0.00 | 0.00 | 26 | 1006.2 |
| 20260902234904 | 27 | 235 | 3.2 | 8.0 | 0.00 | 0.00 | 0.00 | 27 | 1006.2 |
| 20260902233404 | 27 | 169 | 1.6 | 9.7 | 0.00 | 0.00 | 0.00 | 28 | 1006.3 |
| 20260902232904 | 27 | 156 | 4.8 | 9.7 | 0.00 | 0.00 | 0.00 | 28 | 1006.3 |
| 20260902232404 | 27 | 202 | 3.2 | 9.7 | 0.00 | 0.00 | 0.00 | 28 | 1006.4 |
| 20260902230905 | 28 | 210 | 4.8 | 14.5 | 0.00 | 0.00 | 0.00 | 27 | 1006.5 |
| 20260902225904 | 27 | 177 | 3.2 | 14.5 | 0.00 | 0.00 | 0.00 | 27 | 1006.4 |
| 20260902224405 | 28 | 213 | 8.0 | 14.5 | 0.00 | 0.00 | 0.00 | 26 | 1006.5 |
| 20260902214404 | 28 | 226 | 8.0 | 24.1 | 0.00 | 0.00 | 0.00 | 26 | 1006.9 |
| 20260902213404 | 29 | 149 | 9.7 | 20.9 | 0.00 | 0.00 | 0.00 | 25 | 1007.0 |
| 20260902212904 | 28 | 176 | 4.8 | 19.3 | 0.00 | 0.00 | 0.00 | 26 | 1007.2 |
| 20260902212404 | 28 | 201 | 6.4 | 22.5 | 0.00 | 0.00 | 0.00 | 26 | 1007.3 |
| 20260902211904 | 28 | 180 | 8.0 | 22.5 | 0.00 | 0.00 | 0.00 | 26 | 1007.4 |
| 20260902203904 | 26 | 273 | 1.6 | 11.3 | 0.00 | 0.00 | 0.00 | 37 | 1008.1 |
| 20260902203405 | 26 | 221 | 4.8 | 11.3 | 0.00 | 0.00 | 0.00 | 33 | 1008.2 |
| 20260902202904 | 26 | 251 | 1.6 | 8.0 | 0.00 | 0.00 | 0.00 | 36 | 1008.3 |
| 20260902202404 | 26 | 285 | 3.2 | 8.0 | 0.00 | 0.00 | 0.00 | 34 | 1008.3 |
| 20260902201904 | 26 | 7 | 1.6 | 3.2 | 0.00 | 0.00 | 0.00 | 38 | 1008.4 |
| 20260902194905 | 27 | 207 | 4.8 | 14.5 | 0.00 | 0.00 | 0.00 | 33 | 1008.7 |
| 20260902193904 | 28 | 177 | 4.8 | 16.1 | 0.00 | 0.00 | 0.00 | 33 | 1008.8 |
| 20260902192404 | 27 | 184 | 3.2 | 14.5 | 0.00 | 0.00 | 0.00 | 32 | 1009.2 |
| 20260902190905 | 27 | 164 | 1.6 | 8.0 | 0.00 | 0.00 | 0.00 | 32 | 1009.1 |
| 20260902185904 | 27 | 253 | 3.2 | 4.8 | 0.00 | 0.00 | 0.00 | 34 | 1009.4 |
| 20260902184905 | 27 | 190 | 1.6 | 9.7 | 0.00 | 0.00 | 0.00 | 33 | 1009.6 |
| 20260902183904 | 27 | 289 | 3.2 | 11.3 | 0.00 | 0.00 | 0.00 | 34 | 1009.9 |
| 20260902183404 | 27 | 174 | 3.2 | 11.3 | 0.00 | 0.00 | 0.00 | 31 | 1010.0 |
| 20260902182404 | 27 | 234 | 1.6 | 4.8 | 0.00 | 0.00 | 0.00 | 33 | 1010.2 |
| 20260902181404 | 27 | 185 | 1.6 | 4.8 | 0.00 | 0.00 | 0.00 | 33 | 1010.5 |
| 20260902175904 | 26 | 167 | 3.2 | 4.8 | 0.00 | 0.00 | 0.00 | 31 | 1010.7 |
| 20260902171405 | 23 | 173 | 0.0 | 4.8 | 0.00 | 0.00 | 0.00 | 49 | 1010.7 |
| 20260902170904 | 23 | 227 | 1.6 | 4.8 | 0.00 | 0.00 | 0.00 | 54 | 1010.7 |
| 20260902164904 | 23 | 295 | 1.6 | 4.8 | 0.00 | 0.00 | 0.00 | 54 | 1010.8 |
| 20260902163904 | 23 | 197 | 3.2 | 9.7 | 0.00 | 0.00 | 0.00 | 54 | 1010.7 |
| 20260902162905 | 23 | 228 | 4.8 | 9.7 | 0.00 | 0.00 | 0.00 | 56 | 1010.7 |
| 20260902161904 | 22 | 213 | 3.2 | 4.8 | 0.00 | 0.00 | 0.00 | 57 | 1010.7 |
| 20260902160904 | 22 | 232 | 1.6 | 4.8 | 0.00 | 0.00 | 0.00 | 59 | 1010.8 |
| 20260902160404 | 22 | 244 | 1.6 | 4.8 | 0.00 | 0.00 | 0.00 | 61 | 1010.9 |
| 20260902153405 | 20 | 54 | 1.6 | 4.8 | 0.00 | 0.00 | 0.00 | 70 | 1011.1 |
| 20260902152904 | 19 | 198 | 1.6 | 4.8 | 0.00 | 0.00 | 0.00 | 72 | 1011.1 |
| 20260902152405 | 19 | 235 | 1.6 | 4.8 | 0.00 | 0.00 | 0.00 | 71 | 1011.1 |
| 20260902151404 | 18 | 298 | 1.6 | 4.8 | 0.00 | 0.00 | 0.00 | 73 | 1011.2 |
| 20260902150904 | 18 | 209 | 3.2 | 4.8 | 0.00 | 0.00 | 0.00 | 74 | 1011.2 |
| 20260902145904 | 17 | 277 | 1.6 | 4.8 | 0.00 | 0.00 | 0.00 | 77 | 1011.4 |
| 20260902145404 | 17 | 251 | 0.0 | 3.2 | 0.00 | 0.00 | 0.00 | 78 | 1011.4 |
| 20260902144904 | 17 | 251 | 1.6 | 3.2 | 0.00 | 0.00 | 0.00 | 80 | 1011.4 |
| 20260902143905 | 16 | 251 | 0.0 | 3.2 | 0.00 | 0.00 | 0.00 | 81 | 1011.4 |
| 20260902143404 | 16 | 251 | 1.6 | 3.2 | 0.00 | 0.00 | 0.00 | 82 | 1011.3 |
| 20260902142904 | 16 | 259 | 1.6 | 3.2 | 0.00 | 0.00 | 0.00 | 82 | 1011.3 |
| 20260902141905 | 15 | 306 | 0.0 | 3.2 | 0.00 | 0.00 | 0.00 | 84 | 1011.3 |
| 20260902141404 | 15 | 306 | 1.6 | 3.2 | 0.00 | 0.00 | 0.00 | 84 | 1011.3 |
| 20260902140404 | 14 | 271 | 0.0 | 3.2 | 0.00 | 0.00 | 0.00 | 85 | 1011.3 |
| 20260902135404 | 13 | 262 | 0.0 | 3.2 | 0.00 | 0.00 | 0.00 | 85 | 1011.4 |
| 20260902134904 | 13 | 148 | 0.0 | 1.6 | 0.00 | 0.00 | 0.00 | 85 | 1011.4 |
| 20260902133904 | 12 | 148 | 0.0 | 1.6 | 0.00 | 0.00 | 0.00 | 85 | 1011.2 |
| 20260902133404 | 12 | 0 | 0.0 | 1.6 | 0.00 | 0.00 | 0.00 | 86 | 1011.1 |
| 20260902132404 | 12 | 0 | 0.0 | 4.8 | 0.00 | 0.00 | 0.00 | 86 | 1010.8 |
| 20260902131904 | 12 | 0 | 3.2 | 4.8 | 0.00 | 0.00 | 0.00 | 86 | 1010.8 |
| 20260902130904 | 12 | 0 | 1.6 | 4.8 | 0.00 | 0.00 | 0.00 | 86 | 1010.6 |
| 20260902125904 | 12 | 0 | 0.0 | 4.8 | 0.00 | 0.00 | 0.00 | 86 | 1010.5 |
| 20260902124904 | 12 | 0 | 3.2 | 4.8 | 0.00 | 0.03 | 0.00 | 86 | 1010.5 |
| 20260902123404 | 12 | 0 | 0.0 | 0.0 | 0.00 | 0.03 | 0.00 | 85 | 1010.6 |
| 20260902122405 | 12 | 0 | 0.0 | 0.0 | 0.00 | 0.03 | 0.00 | 85 | 1010.6 |
| 20260902121404 | 12 | 0 | 0.0 | 0.0 | 0.00 | 0.03 | 0.00 | 85 | 1010.5 |
| 20260902120404 | 12 | 0 | 0.0 | 0.0 | 0.00 | 0.03 | 0.00 | 85 | 1010.4 |
| 20260902115405 | 13 | 0 | 0.0 | 0.0 | 0.00 | 0.03 | 0.00 | 85 | 1010.3 |
| 20260902114405 | 13 | 0 | 0.0 | 0.0 | 0.00 | 0.05 | 0.00 | 84 | 1010.2 |
| 20260902113904 | 13 | 0 | 0.0 | 0.0 | 0.00 | 0.05 | 0.00 | 84 | 1010.1 |
| 20260902104405 | 15 | 0 | 0.0 | 1.6 | 0.00 | 0.10 | 0.00 | 81 | 1009.9 |
| 20260902103904 | 15 | 0 | 0.0 | 1.6 | 0.00 | 0.10 | 0.00 | 81 | 1009.9 |
| 20260902102904 | 15 | 0 | 0.0 | 0.0 | 0.00 | 0.10 | 0.00 | 80 | 1010.1 |
| 20260902102404 | 15 | 0 | 0.0 | 0.0 | 0.00 | 0.10 | 0.00 | 79 | 1010.1 |
| 20260902100404 | 16 | 0 | 0.0 | 3.2 | 0.00 | 0.10 | 0.00 | 77 | 1010.1 |
| 20260902095404 | 16 | 215 | 1.6 | 3.2 | 0.00 | 0.10 | 0.00 | 76 | 1010.0 |
| 20260902093904 | 16 | 215 | 0.0 | 0.0 | 0.00 | 0.15 | 0.00 | 75 | 1009.8 |
| 20260902093404 | 16 | 215 | 0.0 | 0.0 | 0.00 | 0.15 | 0.00 | 76 | 1009.8 |
| 20260902092905 | 16 | 215 | 0.0 | 0.0 | 0.00 | 0.15 | 0.00 | 76 | 1009.8 |
| 20260902091905 | 16 | 215 | 0.0 | 0.0 | 0.00 | 0.15 | 0.00 | 76 | 1009.8 |
| 20260902091404 | 16 | 215 | 0.0 | 1.6 | 0.00 | 0.15 | 0.00 | 76 | 1009.9 |
| 20260902085905 | 16 | 215 | 0.0 | 3.2 | 0.00 | 0.15 | 0.00 | 76 | 1009.9 |
| 20260902084904 | 16 | 167 | 0.0 | 1.6 | 0.00 | 0.18 | 0.00 | 76 | 1009.9 |
| 20260902084405 | 16 | 167 | 0.0 | 1.6 | 0.00 | 0.36 | 0.00 | 76 | 1010.0 |
| 20260902083404 | 16 | 167 | 0.0 | 1.6 | 0.00 | 0.58 | 0.00 | 76 | 1010.0 |
| 20260902081904 | 17 | 167 | 1.6 | 4.8 | 0.00 | 0.74 | 0.00 | 76 | 1010.2 |
| 20260902080904 | 17 | 167 | 0.0 | 4.8 | 0.00 | 0.79 | 0.00 | 74 | 1010.2 |
| 20260902080404 | 17 | 167 | 0.0 | 0.0 | 0.00 | 0.79 | 0.00 | 73 | 1010.2 |
| 20260902075904 | 17 | 167 | 0.0 | 1.6 | 0.00 | 0.79 | 0.00 | 72 | 1010.3 |
| 20260902075404 | 17 | 167 | 0.0 | 4.8 | 0.00 | 0.79 | 0.00 | 72 | 1010.3 |
| 20260902074904 | 17 | 167 | 0.0 | 4.8 | 0.00 | 0.79 | 0.00 | 73 | 1010.3 |
| 20260902074404 | 17 | 171 | 1.6 | 3.2 | 0.00 | 0.79 | 0.00 | 73 | 1010.3 |
| 20260902071904 | 18 | 229 | 0.0 | 1.6 | 0.00 | 0.79 | 0.00 | 73 | 1010.1 |
| 20260902065904 | 18 | 229 | 0.0 | 0.0 | 0.00 | 0.79 | 0.00 | 71 | 1010.1 |
| 20260902065404 | 18 | 229 | 0.0 | 0.0 | 0.00 | 0.79 | 0.00 | 71 | 1010.1 |
| 20260902064404 | 18 | 229 | 0.0 | 0.0 | 0.00 | 0.79 | 0.00 | 70 | 1010.2 |
| 20260902063904 | 18 | 229 | 0.0 | 0.0 | 0.00 | 0.79 | 0.00 | 69 | 1010.2 |
| 20260902060905 | 19 | 219 | 1.6 | 4.8 | 0.00 | 0.79 | 0.00 | 67 | 1010.3 |
| 20260902055904 | 19 | 140 | 1.6 | 3.2 | 0.00 | 0.79 | 0.79 | 67 | 1010.4 |
| 20260902054404 | 19 | 140 | 0.0 | 4.8 | 0.00 | 0.79 | 0.79 | 67 | 1010.4 |
| 20260902052904 | 19 | 145 | 1.6 | 4.8 | 0.00 | 0.79 | 0.79 | 68 | 1010.5 |
| 20260902052404 | 19 | 145 | 0.0 | 1.6 | 0.00 | 0.79 | 0.79 | 68 | 1010.5 |
| 20260902051905 | 19 | 145 | 0.0 | 1.6 | 0.00 | 0.79 | 0.79 | 67 | 1010.5 |
| 20260902051404 | 19 | 145 | 0.0 | 1.6 | 0.00 | 0.79 | 0.79 | 66 | 1010.5 |
| 20260902050904 | 19 | 145 | 0.0 | 4.8 | 0.00 | 0.79 | 0.79 | 66 | 1010.6 |
| 20260902050404 | 19 | 145 | 0.0 | 4.8 | 0.00 | 0.79 | 0.79 | 65 | 1010.5 |
| 20260902044404 | 19 | 145 | 1.6 | 4.8 | 0.00 | 0.81 | 0.79 | 64 | 1010.4 |
| 20260902043904 | 19 | 145 | 3.2 | 4.8 | 0.00 | 0.81 | 0.79 | 64 | 1010.4 |
| 20260902043404 | 19 | 145 | 3.2 | 4.8 | 0.00 | 0.81 | 0.79 | 64 | 1010.5 |
| 20260902042904 | 19 | 142 | 3.2 | 4.8 | 0.00 | 0.81 | 0.79 | 64 | 1010.4 |
| 20260902041904 | 19 | 146 | 1.6 | 4.8 | 0.00 | 0.81 | 0.79 | 66 | 1010.4 |
| 20260902041404 | 19 | 146 | 3.2 | 4.8 | 0.00 | 0.81 | 0.79 | 66 | 1010.4 |
| 20260902035404 | 19 | 143 | 3.2 | 4.8 | 0.00 | 0.81 | 0.79 | 66 | 1010.1 |
| 20260902034404 | 19 | 147 | 3.2 | 4.8 | 0.00 | 0.81 | 0.79 | 68 | 1009.9 |
| 20260902033904 | 19 | 150 | 3.2 | 4.8 | 0.00 | 0.81 | 0.79 | 69 | 1009.8 |
| 20260902033404 | 19 | 145 | 3.2 | 4.8 | 0.00 | 0.81 | 0.79 | 69 | 1009.7 |
| 20260902032904 | 19 | 144 | 3.2 | 4.8 | 0.00 | 0.81 | 0.79 | 69 | 1009.6 |
| 20260902030903 | 19 | 142 | 3.2 | 8.0 | 0.00 | 0.81 | 0.79 | 71 | 1009.4 |
| 20260902030404 | 19 | 141 | 3.2 | 8.0 | 0.00 | 0.81 | 0.79 | 72 | 1009.3 |
| 20260902025904 | 19 | 150 | 3.2 | 8.0 | 0.00 | 0.81 | 0.79 | 73 | 1009.3 |